Torna al catalogo

H-2A R/B

AttivoPO
NORAD 43682·ROCKET BODY·🇯🇵 Japan

Lanciato Oct 29, 2018 da Tanegashima Space Center

Loading…

Prossimi Passaggi (prossime 24 ore)

TLE

AggiornatoSource: Space-Track

Epoca: Sep 14, 2026, 11:13 UTC

1 43682U 18084L   26257.46755516  .00018179  00000-0  34196-3 0  9997
2 43682  98.8424 156.0468 0022878  85.1072 275.2785 15.48360261434924

Traccia H-2A R/B in tempo reale con AllMySat

Download on the App Store